| time (UTC) | temp C | wind direction | speed KPH | gust KPH | rain 1hr cm | rain 24hr cm | rain mn cm | humidity % | barometer mb |
| 20260506013651 | 12 | 0.0 | 0.0 | 0.00 | 0.00 | 0.00 | 89 | 1003.1 | |
| 20260506012651 | 12 | 0.0 | 0.0 | 0.00 | 0.00 | 0.00 | 89 | 1003.1 | |
| 20260506011646 | 12 | 0.0 | 0.0 | 0.00 | 0.00 | 0.00 | 89 | 1003.1 | |
| 20260506010644 | 12 | 0.0 | 0.0 | 0.00 | 0.00 | 0.00 | 89 | 1003.1 | |
| 20260506005645 | 12 | 0.0 | 0.0 | 0.00 | 0.00 | 0.00 | 89 | 1003.2 | |
| 20260506004643 | 12 | 0.0 | 0.0 | 0.00 | 0.00 | 0.00 | 89 | 1003.3 | |
| 20260506003639 | 12 | 0.0 | 0.0 | 0.00 | 0.00 | 0.00 | 89 | 1003.4 | |
| 20260506002638 | 12 | 0.0 | 0.0 | 0.00 | 0.00 | 0.00 | 89 | 1003.6 | |
| 20260506001636 | 12 | 0.0 | 0.0 | 0.00 | 0.00 | 0.00 | 89 | 1003.6 | |
| 20260506000718 | 12 | 0.0 | 0.0 | 0.00 | 0.00 | 0.00 | 89 | 1003.6 | |
| 20260505235634 | 12 | 0.0 | 0.0 | 0.00 | 0.00 | 0.00 | 89 | 1003.7 | |
| 20260505234631 | 13 | 0.0 | 0.0 | 0.00 | 0.00 | 0.00 | 89 | 1003.8 | |
| 20260505233627 | 13 | 0.0 | 0.0 | 0.00 | 0.00 | 0.00 | 89 | 1003.9 | |
| 20260505232628 | 13 | 0.0 | 0.0 | 0.00 | 0.00 | 0.00 | 89 | 1003.8 | |
| 20260505231624 | 13 | 0.0 | 0.0 | 0.00 | 0.00 | 0.00 | 89 | 1004.0 | |
| 20260505230621 | 13 | 0.0 | 0.0 | 0.00 | 0.00 | 0.00 | 89 | 1004.0 | |
| 20260505225619 | 13 | 0.0 | 0.0 | 0.00 | 0.00 | 0.00 | 89 | 1004.1 | |
| 20260505224616 | 12 | 0.0 | 0.0 | 0.00 | 0.00 | 0.00 | 89 | 1004.1 | |
| 20260505223617 | 12 | 0.0 | 0.0 | 0.00 | 0.00 | 0.00 | 89 | 1004.1 | |
| 20260505222635 | 12 | 0.0 | 0.0 | 0.00 | 0.00 | 0.00 | 89 | 1004.1 | |
| 20260505221742 | 12 | 0.0 | 0.0 | 0.00 | 0.00 | 0.00 | 89 | 1004.1 | |
| 20260505220609 | 12 | 0.0 | 0.0 | 0.00 | 0.00 | 0.00 | 89 | 1004.0 | |
| 20260505215628 | 13 | 0.0 | 0.0 | 0.00 | 0.00 | 0.00 | 89 | 1003.9 | |
| 20260505214628 | 13 | 0.0 | 0.0 | 0.00 | 0.00 | 0.00 | 89 | 1004.0 | |
| 20260505213604 | 13 | 0.0 | 0.0 | 0.00 | 0.00 | 0.00 | 89 | 1004.0 | |
| 20260505212602 | 13 | 0.0 | 0.0 | 0.00 | 0.00 | 0.00 | 88 | 1004.0 | |
| 20260505211601 | 13 | 0.0 | 0.0 | 0.00 | 0.00 | 0.00 | 88 | 1004.0 | |
| 20260505210558 | 13 | 0.0 | 0.0 | 0.00 | 0.00 | 0.00 | 88 | 1004.0 | |
| 20260505205558 | 13 | 0.0 | 0.0 | 0.00 | 0.00 | 0.00 | 88 | 1003.9 | |
| 20260505204555 | 13 | 0.0 | 0.0 | 0.00 | 0.00 | 0.00 | 88 | 1003.9 | |
| 20260505203552 | 14 | 0.0 | 0.0 | 0.00 | 0.00 | 0.00 | 88 | 1004.0 | |
| 20260505202549 | 14 | 0.0 | 0.0 | 0.00 | 0.00 | 0.00 | 88 | 1003.8 | |
| 20260505201547 | 14 | 0.0 | 0.0 | 0.00 | 0.00 | 0.00 | 88 | 1003.8 | |
| 20260505200545 | 14 | 0.0 | 0.0 | 0.00 | 0.00 | 0.00 | 88 | 1003.7 | |
| 20260505195545 | 14 | 0.0 | 0.0 | 0.00 | 0.00 | 0.00 | 88 | 1003.6 | |
| 20260505194543 | 14 | 0.0 | 0.0 | 0.00 | 0.00 | 0.00 | 88 | 1003.5 | |
| 20260505193602 | 14 | 0.0 | 0.0 | 0.00 | 0.00 | 0.00 | 87 | 1003.6 | |
| 20260505192538 | 15 | 0.0 | 0.0 | 0.00 | 0.00 | 0.00 | 87 | 1003.6 | |
| 20260505191536 | 15 | 0.0 | 0.0 | 0.00 | 0.00 | 0.00 | 87 | 1003.5 | |
| 20260505190535 | 15 | 0.0 | 0.0 | 0.00 | 0.00 | 0.00 | 87 | 1003.4 | |
| 20260505185533 | 15 | 0.0 | 0.0 | 0.00 | 0.00 | 0.00 | 86 | 1003.5 | |
| 20260505184531 | 15 | 0.0 | 0.0 | 0.00 | 0.00 | 0.00 | 86 | 1003.5 | |
| 20260505183550 | 15 | 0.0 | 0.0 | 0.00 | 0.00 | 0.00 | 86 | 1003.5 | |
| 20260505182628 | 15 | 0.0 | 0.0 | 0.00 | 0.00 | 0.00 | 86 | 1003.5 | |
| 20260505181523 | 16 | 0.0 | 0.0 | 0.00 | 0.00 | 0.00 | 86 | 1003.5 | |
| 20260505180521 | 16 | 0.0 | 0.0 | 0.00 | 0.00 | 0.00 | 86 | 1003.6 | |
| 20260505175521 | 17 | 0.0 | 0.0 | 0.00 | 0.00 | 0.00 | 86 | 1003.6 | |
| 20260505174517 | 17 | 0.0 | 0.0 | 0.00 | 0.00 | 0.00 | 83 | 1003.4 | |
| 20260505173517 | 18 | 0.0 | 0.0 | 0.00 | 0.00 | 0.00 | 80 | 1002.9 | |
| 20260505172514 | 18 | 0.0 | 0.0 | 0.00 | 0.00 | 0.00 | 78 | 1002.8 | |
| 20260505171512 | 18 | 0.0 | 0.0 | 0.00 | 0.00 | 0.00 | 77 | 1002.8 | |
| 20260505170529 | 18 | 0.0 | 0.0 | 0.00 | 0.00 | 0.00 | 75 | 1002.8 | |
| 20260505165552 | 19 | 0.0 | 0.0 | 0.00 | 0.00 | 0.00 | 74 | 1002.7 | |
| 20260505164526 | 19 | 0.0 | 0.0 | 0.00 | 0.00 | 0.00 | 73 | 1002.9 | |
| 20260505163505 | 19 | 0.0 | 0.0 | 0.00 | 0.00 | 0.00 | 73 | 1003.0 | |
| 20260505162503 | 20 | 0.0 | 0.0 | 0.00 | 0.00 | 0.00 | 73 | 1003.1 | |
| 20260505161520 | 20 | 0.0 | 0.0 | 0.00 | 0.00 | 0.00 | 73 | 1003.0 | |
| 20260505160521 | 20 | 0.0 | 0.0 | 0.00 | 0.00 | 0.00 | 73 | 1003.1 | |
| 20260505152448 | 20 | 0.0 | 0.0 | 0.00 | 0.00 | 0.00 | 73 | 1003.1 | |
| 20260505151450 | 20 | 0.0 | 0.0 | 0.00 | 0.00 | 0.00 | 74 | 1003.2 | |
| 20260505150445 | 20 | 0.0 | 0.0 | 0.00 | 0.00 | 0.00 | 75 | 1003.3 | |
| 20260505140433 | 18 | 0.0 | 0.0 | 0.00 | 0.00 | 0.00 | 76 | 1003.9 | |
| 20260505124418 | 20 | 0.0 | 0.0 | 0.00 | 0.00 | 0.00 | 72 | 1004.6 | |
| 20260505123415 | 20 | 0.0 | 0.0 | 0.00 | 0.00 | 0.00 | 71 | 1004.6 | |
| 20260505122414 | 20 | 0.0 | 0.0 | 0.00 | 0.00 | 0.00 | 71 | 1004.6 | |
| 20260505121411 | 20 | 0.0 | 0.0 | 0.00 | 0.00 | 0.00 | 70 | 1004.7 | |
| 20260505120451 | 20 | 0.0 | 0.0 | 0.00 | 0.00 | 0.00 | 69 | 1004.7 | |
| 20260505115408 | 20 | 0.0 | 0.0 | 0.00 | 0.00 | 0.00 | 70 | 1004.7 | |
| 20260505114426 | 21 | 0.0 | 0.0 | 0.00 | 0.00 | 0.00 | 69 | 1004.8 | |
| 20260505113405 | 21 | 0.0 | 0.0 | 0.00 | 0.00 | 0.00 | 68 | 1004.8 | |
| 20260505112422 | 21 | 0.0 | 0.0 | 0.00 | 0.00 | 0.00 | 67 | 1004.8 | |
| 20260505111401 | 21 | 0.0 | 0.0 | 0.00 | 0.00 | 0.00 | 67 | 1004.9 | |
| 20260505110357 | 21 | 0.0 | 0.0 | 0.00 | 0.00 | 0.00 | 67 | 1004.8 | |
| 20260505101348 | 20 | 0.0 | 0.0 | 0.00 | 0.00 | 0.00 | 72 | 1005.1 | |
| 20260505100346 | 20 | 0.0 | 0.0 | 0.00 | 0.00 | 0.00 | 74 | 1005.2 | |
| 20260505095343 | 20 | 0.0 | 0.0 | 0.00 | 0.00 | 0.00 | 76 | 1005.2 | |
| 20260505094345 | 19 | 0.0 | 0.0 | 0.00 | 0.00 | 0.00 | 77 | 1005.1 | |
| 20260505093341 | 18 | 0.0 | 0.0 | 0.00 | 0.00 | 0.00 | 77 | 1005.1 | |
| 20260505092338 | 18 | 0.0 | 0.0 | 0.00 | 0.00 | 0.00 | 78 | 1005.2 | |
| 20260505091335 | 18 | 0.0 | 0.0 | 0.00 | 0.00 | 0.00 | 78 | 1005.3 | |
| 20260505090333 | 18 | 0.0 | 0.0 | 0.00 | 0.00 | 0.00 | 79 | 1005.4 | |
| 20260505085415 | 17 | 0.0 | 0.0 | 0.00 | 0.00 | 0.00 | 79 | 1005.3 | |
| 20260505084351 | 17 | 0.0 | 0.0 | 0.00 | 0.00 | 0.00 | 80 | 1005.4 | |
| 20260505083329 | 17 | 0.0 | 0.0 | 0.00 | 0.00 | 0.00 | 80 | 1005.5 | |
| 20260505082327 | 17 | 0.0 | 0.0 | 0.00 | 0.00 | 0.00 | 80 | 1005.5 | |
| 20260505081323 | 16 | 0.0 | 0.0 | 0.00 | 0.00 | 0.00 | 80 | 1005.5 | |
| 20260505080321 | 16 | 0.0 | 0.0 | 0.00 | 0.00 | 0.00 | 80 | 1005.6 | |
| 20260505075320 | 16 | 0.0 | 0.0 | 0.00 | 0.00 | 0.00 | 80 | 1005.6 | |
| 20260505074317 | 16 | 0.0 | 0.0 | 0.00 | 0.00 | 0.00 | 80 | 1005.6 | |
| 20260505073316 | 15 | 0.0 | 0.0 | 0.00 | 0.00 | 0.00 | 81 | 1005.6 | |
| 20260505072316 | 15 | 0.0 | 0.0 | 0.00 | 0.00 | 0.00 | 81 | 1005.6 | |
| 20260505071335 | 15 | 0.0 | 0.0 | 0.00 | 0.00 | 0.00 | 81 | 1005.7 | |
| 20260505070309 | 15 | 0.0 | 0.0 | 0.00 | 0.00 | 0.00 | 82 | 1005.8 | |
| 20260505065307 | 15 | 0.0 | 0.0 | 0.00 | 0.00 | 0.00 | 82 | 1005.8 | |
| 20260505064307 | 15 | 0.0 | 0.0 | 0.00 | 0.00 | 0.00 | 83 | 1005.9 | |
| 20260505063303 | 14 | 0.0 | 0.0 | 0.00 | 0.00 | 0.00 | 84 | 1005.9 | |
| 20260505062300 | 14 | 0.0 | 0.0 | 0.00 | 0.00 | 0.00 | 84 | 1005.9 | |
| 20260505061322 | 13 | 0.0 | 0.0 | 0.00 | 0.00 | 0.00 | 84 | 1005.8 | |
| 20260505060259 | 13 | 0.0 | 0.0 | 0.00 | 0.00 | 0.00 | 84 | 1005.7 | |
| 20260505055337 | 13 | 0.0 | 0.0 | 0.00 | 0.00 | 0.00 | 84 | 1005.7 | |
| 20260505054253 | 13 | 0.0 | 0.0 | 0.00 | 0.00 | 0.00 | 85 | 1005.7 | |
| 20260505053251 | 13 | 0.0 | 0.0 | 0.00 | 0.00 | 0.00 | 85 | 1005.8 | |
| 20260505052250 | 13 | 0.0 | 0.0 | 0.00 | 0.00 | 0.00 | 85 | 1005.9 | |
| 20260505051247 | 12 | 0.0 | 0.0 | 0.00 | 0.00 | 0.00 | 85 | 1006.0 | |
| 20260505050245 | 12 | 0.0 | 0.0 | 0.00 | 0.00 | 0.00 | 85 | 1006.0 | |
| 20260505041236 | 12 | 0.0 | 0.0 | 0.00 | 0.00 | 0.00 | 85 | 1005.8 | |
| 20260505040233 | 12 | 0.0 | 0.0 | 0.00 | 0.00 | 0.00 | 85 | 1005.8 | |
| 20260505035232 | 12 | 0.0 | 0.0 | 0.00 | 0.00 | 0.00 | 84 | 1005.8 | |
| 20260505034231 | 12 | 0.0 | 0.0 | 0.00 | 0.00 | 0.00 | 84 | 1005.8 | |
| 20260505033248 | 12 | 0.0 | 0.0 | 0.00 | 0.00 | 0.00 | 84 | 1005.9 | |
| 20260505032227 | 12 | 0.0 | 0.0 | 0.00 | 0.00 | 0.00 | 84 | 1006.0 | |
| 20260505031224 | 13 | 0.0 | 0.0 | 0.00 | 0.00 | 0.00 | 84 | 1006.1 | |
| 20260505030222 | 13 | 0.0 | 0.0 | 0.00 | 0.00 | 0.00 | 83 | 1006.2 | |
| 20260505025220 | 13 | 0.0 | 0.0 | 0.00 | 0.00 | 0.00 | 83 | 1006.3 | |
| 20260505024216 | 13 | 0.0 | 0.0 | 0.00 | 0.00 | 0.00 | 83 | 1006.4 | |
| 20260505023216 | 13 | 0.0 | 0.0 | 0.00 | 0.00 | 0.00 | 82 | 1006.6 | |
| 20260505022215 | 13 | 0.0 | 0.0 | 0.00 | 0.00 | 0.00 | 82 | 1006.8 | |
| 20260505021214 | 13 | 0.0 | 0.0 | 0.00 | 0.00 | 0.00 | 82 | 1006.9 | |
| 20260505020211 | 14 | 0.0 | 0.0 | 0.00 | 0.00 | 0.00 | 81 | 1006.8 | |
| 20260505015208 | 14 | 0.0 | 0.0 | 0.00 | 0.00 | 0.00 | 81 | 1006.8 |